Time,TemperatureF,DewpointF,PressureIn,WindDirection,WindDirectionDegrees,WindSpeedMPH,WindSpeedGustMPH,Humidity,HourlyPrecipIn,Conditions,Clouds,dailyrainin,SoftwareType,DateUTC
2013-07-20 00:00:00,68.4,58.2,29.70,SE,135,1.0,5.0,70,0.00,,---,0.00,VWS V14.01,2013-07-20 07:00:00,
2013-07-20 00:15:00,67.1,57.8,29.70,ESE,112,1.0,5.0,72,0.00,,---,0.00,VWS V14.01,2013-07-20 07:15:00,
2013-07-20 00:30:00,66.0,57.1,29.70,ESE,112,2.0,7.0,73,0.00,,---,0.00,VWS V14.01,2013-07-20 07:30:00,
2013-07-20 00:45:00,64.9,56.4,29.70,East,90,1.0,7.0,74,0.00,,---,0.00,VWS V14.01,2013-07-20 07:45:00,
2013-07-20 01:00:00,63.9,55.8,29.70,ESE,112,2.0,7.0,75,0.00,,---,0.00,VWS V14.01,2013-07-20 08:00:00,
2013-07-20 01:15:00,63.1,55.4,29.70,ESE,112,4.0,8.0,76,0.00,,---,0.00,VWS V14.01,2013-07-20 08:15:00,
2013-07-20 01:30:00,62.5,55.2,29.71,ESE,112,2.0,6.0,77,0.00,,---,0.00,VWS V14.01,2013-07-20 08:30:00,
2013-07-20 01:45:00,61.9,55.0,29.71,ESE,112,3.0,7.0,78,0.00,,---,0.00,VWS V14.01,2013-07-20 08:45:00,
2013-07-20 02:00:00,61.3,54.4,29.71,ESE,112,4.0,8.0,78,0.00,,---,0.00,VWS V14.01,2013-07-20 09:00:00,
2013-07-20 02:15:00,60.8,54.3,29.71,ESE,112,3.0,8.0,79,0.00,,---,0.00,VWS V14.01,2013-07-20 09:15:00,
2013-07-20 02:30:00,60.4,54.2,29.71,ESE,112,2.0,6.0,80,0.00,,---,0.00,VWS V14.01,2013-07-20 09:30:00,
2013-07-20 02:45:00,60.1,54.3,29.71,ESE,112,1.0,5.0,81,0.00,,---,0.00,VWS V14.01,2013-07-20 09:45:00,
2013-07-20 03:00:00,59.8,54.0,29.71,ESE,112,0.0,0.0,81,0.00,,---,0.00,VWS V14.01,2013-07-20 10:00:00,
2013-07-20 03:15:00,59.6,53.8,29.72,ESE,112,0.0,1.0,81,0.00,,---,0.00,VWS V14.01,2013-07-20 10:15:00,
2013-07-20 03:30:00,59.4,53.9,29.71,ESE,112,0.0,0.0,82,0.00,,---,0.00,VWS V14.01,2013-07-20 10:30:00,
2013-07-20 03:45:00,59.1,53.6,29.71,ESE,112,0.0,0.0,82,0.00,,---,0.00,VWS V14.01,2013-07-20 10:45:00,
2013-07-20 04:00:00,58.9,53.4,29.71,ESE,112,0.0,0.0,82,0.00,,---,0.00,VWS V14.01,2013-07-20 11:00:00,
2013-07-20 04:15:00,58.9,53.8,29.71,ESE,112,0.0,1.0,83,0.00,,---,0.00,VWS V14.01,2013-07-20 11:15:00,
2013-07-20 04:30:00,58.7,53.6,29.71,ESE,112,0.0,0.0,83,0.00,,---,0.00,VWS V14.01,2013-07-20 11:30:00,
2013-07-20 04:45:00,58.4,53.3,29.71,ESE,112,0.0,0.0,83,0.00,,---,0.00,VWS V14.01,2013-07-20 11:45:00,
2013-07-20 05:00:00,58.1,53.3,29.71,ESE,112,0.0,0.0,84,0.00,,---,0.00,VWS V14.01,2013-07-20 12:00:00,
2013-07-20 05:15:00,57.6,53.1,29.71,ESE,112,0.0,2.0,85,0.00,,---,0.00,VWS V14.01,2013-07-20 12:15:00,
2013-07-20 05:30:00,57.3,53.2,29.72,ESE,112,0.0,0.0,86,0.00,,---,0.00,VWS V14.01,2013-07-20 12:30:00,
2013-07-20 05:45:00,57.2,53.1,29.71,ESE,112,0.0,0.0,86,0.00,,---,0.00,VWS V14.01,2013-07-20 12:45:00,
2013-07-20 06:00:00,57.0,53.2,29.72,ESE,112,0.0,0.0,87,0.00,,---,0.00,VWS V14.01,2013-07-20 13:00:00,
2013-07-20 06:15:00,56.9,53.1,29.72,ESE,112,0.0,0.0,87,0.00,,---,0.00,VWS V14.01,2013-07-20 13:15:00,
2013-07-20 06:30:00,57.3,53.2,29.72,ESE,112,0.0,0.0,86,0.00,,---,0.00,VWS V14.01,2013-07-20 13:30:00,
2013-07-20 06:36:00,56.9,53.1,29.72,ESE,112,0.0,0.0,87,0.00,,---,0.00,VWS V14.01,2013-07-20 13:36:00,
2013-07-20 06:41:00,57.2,54.0,29.72,NE,49,0.0,0.0,89,0.00,,---,0.00,VWS V14.01,2013-07-20 13:41:00,
2013-07-20 06:45:00,57.2,54.0,29.72,NE,49,0.0,0.0,89,0.00,,---,0.00,VWS V14.01,2013-07-20 13:45:00,
2013-07-20 06:46:00,57.2,54.0,29.72,NE,49,0.0,0.0,89,0.00,,---,0.00,VWS V14.01,2013-07-20 13:46:00,
2013-07-20 06:51:00,57.3,54.1,29.73,NE,49,0.0,0.0,89,0.00,,---,0.00,VWS V14.01,2013-07-20 13:51:00,
2013-07-20 06:56:00,57.4,54.2,29.73,North,5,0.0,0.0,89,0.00,,---,0.00,VWS V14.01,2013-07-20 13:56:00,
2013-07-20 07:00:00,57.5,54.3,29.73,NNW,327,0.0,0.0,89,0.00,,---,0.00,VWS V14.01,2013-07-20 14:00:00,
2013-07-20 07:01:00,57.5,54.3,29.73,NNW,327,0.0,0.0,89,0.00,,---,0.00,VWS V14.01,2013-07-20 14:01:00,
2013-07-20 07:06:00,57.6,54.4,29.73,NNW,327,0.0,0.0,89,0.00,,---,0.00,VWS V14.01,2013-07-20 14:06:00,
2013-07-20 07:11:00,57.8,54.6,29.74,NNW,327,0.0,0.0,89,0.00,,---,0.00,VWS V14.01,2013-07-20 14:11:00,
2013-07-20 07:15:00,58.1,54.9,29.74,NNW,327,0.0,0.0,89,0.00,,---,0.00,VWS V14.01,2013-07-20 14:15:00,
2013-07-20 07:16:00,58.1,54.9,29.74,NNW,327,0.0,0.0,89,0.00,,---,0.00,VWS V14.01,2013-07-20 14:16:00,
2013-07-20 07:21:00,58.4,55.5,29.74,NNW,327,0.0,0.0,90,0.00,,---,0.00,VWS V14.01,2013-07-20 14:21:00,
2013-07-20 07:26:00,58.8,55.6,29.74,NNW,327,0.0,0.0,89,0.00,,---,0.00,VWS V14.01,2013-07-20 14:26:00,
2013-07-20 07:30:00,59.1,55.6,29.74,NNW,327,0.0,2.0,88,0.00,,---,0.00,VWS V14.01,2013-07-20 14:30:00,
2013-07-20 07:31:00,59.1,55.9,29.74,NNW,327,1.0,2.0,89,0.00,,---,0.00,VWS V14.01,2013-07-20 14:31:00,
2013-07-20 07:36:00,59.5,56.0,29.74,NNW,327,0.0,1.0,88,0.00,,---,0.00,VWS V14.01,2013-07-20 14:36:00,
2013-07-20 07:41:00,59.9,56.3,29.74,NNW,327,0.0,1.0,88,0.00,,---,0.00,VWS V14.01,2013-07-20 14:41:00,
2013-07-20 07:45:00,60.4,56.2,29.74,NNW,327,0.0,1.0,86,0.00,,---,0.00,VWS V14.01,2013-07-20 14:45:00,
2013-07-20 07:46:00,60.3,56.1,29.74,NNW,327,0.0,1.0,86,0.00,,---,0.00,VWS V14.01,2013-07-20 14:46:00,
2013-07-20 07:51:00,60.7,56.2,29.74,NNW,348,0.0,2.0,85,0.00,,---,0.00,VWS V14.01,2013-07-20 14:51:00,
2013-07-20 07:56:00,61.1,56.6,29.74,NNW,348,0.0,2.0,85,0.00,,---,0.00,VWS V14.01,2013-07-20 14:56:00,
2013-07-20 08:00:00,61.4,56.5,29.74,NNW,348,0.0,2.0,84,0.00,,---,0.00,VWS V14.01,2013-07-20 15:00:00,
2013-07-20 08:01:00,61.4,56.5,29.74,NNW,348,0.0,2.0,84,0.00,,---,0.00,VWS V14.01,2013-07-20 15:01:00,
2013-07-20 08:06:00,61.7,56.5,29.74,NNW,348,0.0,0.0,83,0.00,,---,0.00,VWS V14.01,2013-07-20 15:06:00,
2013-07-20 08:11:00,62.0,56.5,29.74,NNW,348,0.0,0.0,82,0.00,,---,0.00,VWS V14.01,2013-07-20 15:11:00,
2013-07-20 08:15:00,62.3,56.7,29.75,North,355,0.0,1.0,82,0.00,,---,0.00,VWS V14.01,2013-07-20 15:15:00,
2013-07-20 08:16:00,62.3,56.7,29.75,North,355,0.0,1.0,82,0.00,,---,0.00,VWS V14.01,2013-07-20 15:16:00,
2013-07-20 08:21:00,62.6,56.7,29.75,North,355,0.0,0.0,81,0.00,,---,0.00,VWS V14.01,2013-07-20 15:21:00,
2013-07-20 08:25:00,62.9,56.6,29.75,North,355,0.0,0.0,80,0.00,,---,0.00,VWS V14.01,2013-07-20 15:25:00,
2013-07-20 08:30:00,63.2,56.9,29.75,North,355,0.0,0.0,80,0.00,,---,0.00,VWS V14.01,2013-07-20 15:30:00,
2013-07-20 08:35:00,63.6,57.7,29.75,South,180,0.0,0.0,81,0.00,,---,0.00,VWS V14.01,2013-07-20 15:35:00,
2013-07-20 08:40:00,64.0,58.1,29.75,South,177,4.0,4.0,81,0.00,,---,0.00,VWS V14.01,2013-07-20 15:40:00,
2013-07-20 08:45:00,64.4,58.5,29.75,South,173,0.0,4.0,81,0.00,,---,0.00,VWS V14.01,2013-07-20 15:45:00,
2013-07-20 08:50:00,64.7,58.4,29.75,South,173,1.0,4.0,80,0.00,,---,0.00,VWS V14.01,2013-07-20 15:50:00,
2013-07-20 08:55:00,65.1,58.4,29.75,South,173,0.0,4.0,79,0.00,,---,0.00,VWS V14.01,2013-07-20 15:55:00,
2013-07-20 09:00:00,65.6,58.6,29.75,South,173,0.0,4.0,78,0.00,,---,0.00,VWS V14.01,2013-07-20 16:00:00,
2013-07-20 09:05:00,66.2,59.2,29.75,South,173,0.0,0.0,78,0.00,,---,0.00,VWS V14.01,2013-07-20 16:05:00,
2013-07-20 09:10:00,66.8,59.4,29.75,South,173,0.0,4.0,77,0.00,,---,0.00,VWS V14.01,2013-07-20 16:10:00,
2013-07-20 09:15:00,67.4,59.2,29.75,South,173,0.0,4.0,75,0.00,,---,0.00,VWS V14.01,2013-07-20 16:15:00,
2013-07-20 09:20:00,68.0,59.8,29.75,South,173,0.0,0.0,75,0.00,,---,0.00,VWS V14.01,2013-07-20 16:20:00,
2013-07-20 09:25:00,68.6,59.6,29.75,South,171,2.0,5.0,73,0.00,,---,0.00,VWS V14.01,2013-07-20 16:25:00,
2013-07-20 09:30:00,69.3,59.9,29.75,SSE,166,2.0,6.0,72,0.00,,---,0.00,VWS V14.01,2013-07-20 16:30:00,
2013-07-20 09:35:00,70.1,60.3,29.75,SSE,163,2.0,5.0,71,0.00,,---,0.00,VWS V14.01,2013-07-20 16:35:00,
2013-07-20 09:40:00,70.7,60.0,29.75,SSE,163,4.0,5.0,69,0.00,,---,0.00,VWS V14.01,2013-07-20 16:40:00,
2013-07-20 09:45:00,71.4,60.3,29.75,SSE,163,0.0,5.0,68,0.00,,---,0.00,VWS V14.01,2013-07-20 16:45:00,
2013-07-20 09:50:00,72.1,60.5,29.75,SSE,163,1.0,4.0,67,0.00,,---,0.00,VWS V14.01,2013-07-20 16:50:00,
2013-07-20 09:55:00,72.7,60.3,29.74,SSE,153,0.0,6.0,65,0.00,,---,0.00,VWS V14.01,2013-07-20 16:55:00,
2013-07-20 10:00:00,73.3,60.0,29.74,SSE,153,0.0,6.0,63,0.00,,---,0.00,VWS V14.01,2013-07-20 17:00:00,
2013-07-20 10:05:00,74.0,61.5,29.74,SSE,153,1.0,4.0,65,0.00,,---,0.00,VWS V14.01,2013-07-20 17:05:00,
2013-07-20 10:10:00,74.6,60.7,29.74,SSE,153,0.0,4.0,62,0.00,,---,0.00,VWS V14.01,2013-07-20 17:10:00,
2013-07-20 10:15:00,75.2,61.3,29.75,SSE,151,2.0,5.0,62,0.00,,---,0.00,VWS V14.01,2013-07-20 17:15:00,
2013-07-20 10:20:00,76.0,61.6,29.74,SSE,149,2.0,6.0,61,0.00,,---,0.00,VWS V14.01,2013-07-20 17:20:00,
2013-07-20 10:25:00,76.6,61.2,29.74,SE,124,1.0,6.0,59,0.00,,---,0.00,VWS V14.01,2013-07-20 17:25:00,
2013-07-20 10:30:00,77.0,60.1,29.74,SE,125,5.0,6.0,56,0.00,,---,0.00,VWS V14.01,2013-07-20 17:30:00,
2013-07-20 10:35:00,77.4,62.0,29.74,SE,127,1.0,5.0,59,0.00,,---,0.00,VWS V14.01,2013-07-20 17:35:00,
2013-07-20 10:40:00,78.0,62.5,29.74,SE,128,0.0,5.0,59,0.00,,---,0.00,VWS V14.01,2013-07-20 17:40:00,
2013-07-20 10:45:00,78.5,63.0,29.74,ESE,119,2.0,6.0,59,0.00,,---,0.00,VWS V14.01,2013-07-20 17:45:00,
2013-07-20 10:50:00,79.0,62.5,29.74,ESE,107,1.0,5.0,57,0.00,,---,0.00,VWS V14.01,2013-07-20 17:50:00,
2013-07-20 10:55:00,79.5,63.0,29.74,ESE,107,1.0,5.0,57,0.00,,---,0.00,VWS V14.01,2013-07-20 17:55:00,
2013-07-20 11:00:00,80.0,62.4,29.74,ESE,116,2.0,6.0,55,0.00,,---,0.00,VWS V14.01,2013-07-20 18:00:00,
2013-07-20 11:05:00,80.5,63.4,29.73,ESE,113,1.0,5.0,56,0.00,,---,0.00,VWS V14.01,2013-07-20 18:05:00,
2013-07-20 11:10:00,81.1,63.4,29.74,ESE,115,0.0,5.0,55,0.00,,---,0.00,VWS V14.01,2013-07-20 18:10:00,
2013-07-20 11:15:00,81.5,62.7,29.73,ESE,118,1.0,6.0,53,0.00,,---,0.00,VWS V14.01,2013-07-20 18:15:00,
2013-07-20 11:20:00,82.0,63.2,29.73,ESE,121,2.0,5.0,53,0.00,,---,0.00,VWS V14.01,2013-07-20 18:20:00,
2013-07-20 11:25:00,82.5,62.6,29.73,ESE,115,4.0,6.0,51,0.00,,---,0.00,VWS V14.01,2013-07-20 18:25:00,
2013-07-20 11:30:00,82.9,62.9,29.72,ESE,117,1.0,6.0,51,0.00,,---,0.00,VWS V14.01,2013-07-20 18:30:00,
2013-07-20 11:35:00,83.4,64.5,29.73,ESE,117,1.0,6.0,53,0.00,,---,0.00,VWS V14.01,2013-07-20 18:35:00,
2013-07-20 11:41:00,83.8,62.6,29.72,SSE,165,1.0,7.0,49,0.00,,---,0.00,VWS V14.01,2013-07-20 18:41:00,
2013-07-20 11:45:00,84.3,62.5,29.72,SSE,157,1.0,7.0,48,0.00,,---,0.00,VWS V14.01,2013-07-20 18:45:00,
2013-07-20 11:46:00,84.2,62.4,29.72,SSE,157,1.0,7.0,48,0.00,,---,0.00,VWS V14.01,2013-07-20 18:46:00,
2013-07-20 11:51:00,84.9,63.0,29.72,SSE,157,0.0,4.0,48,0.00,,---,0.00,VWS V14.01,2013-07-20 18:51:00,
2013-07-20 11:56:00,85.4,63.5,29.72,SSE,157,0.0,4.0,48,0.00,,---,0.00,VWS V14.01,2013-07-20 18:56:00,
2013-07-20 12:00:00,85.9,63.3,29.72,SSE,157,0.0,4.0,47,0.00,,---,0.00,VWS V14.01,2013-07-20 19:00:00,
2013-07-20 12:01:00,85.9,63.3,29.72,SSE,157,0.0,0.0,47,0.00,,---,0.00,VWS V14.01,2013-07-20 19:01:00,
2013-07-20 12:06:00,86.5,64.5,29.72,SSE,157,2.0,5.0,48,0.00,,---,0.00,VWS V14.01,2013-07-20 19:06:00,
2013-07-20 12:11:00,87.1,65.1,29.72,SSE,157,0.0,5.0,48,0.00,,---,0.00,VWS V14.01,2013-07-20 19:11:00,
2013-07-20 12:15:00,87.8,65.7,29.72,SSE,156,1.0,5.0,48,0.00,,---,0.00,VWS V14.01,2013-07-20 19:15:00,
2013-07-20 12:16:00,87.8,65.7,29.72,SSE,156,1.0,5.0,48,0.00,,---,0.00,VWS V14.01,2013-07-20 19:16:00,
2013-07-20 12:21:00,88.5,63.8,29.71,SSE,155,2.0,5.0,44,0.00,,---,0.00,VWS V14.01,2013-07-20 19:21:00,
2013-07-20 12:26:00,89.1,64.4,29.71,SSE,154,2.0,5.0,44,0.00,,---,0.00,VWS V14.01,2013-07-20 19:26:00,
2013-07-20 12:30:00,89.6,62.8,29.71,SSE,154,1.0,5.0,41,0.00,,---,0.00,VWS V14.01,2013-07-20 19:30:00,
2013-07-20 12:31:00,89.6,62.8,29.71,SSE,154,0.0,1.0,41,0.00,,---,0.00,VWS V14.01,2013-07-20 19:31:00,
2013-07-20 12:36:00,90.1,61.1,29.71,SSE,155,2.0,5.0,38,0.00,,---,0.00,VWS V14.01,2013-07-20 19:36:00,
2013-07-20 12:41:00,90.4,62.1,29.70,SSE,151,5.0,6.0,39,0.00,,---,0.00,VWS V14.01,2013-07-20 19:41:00,
2013-07-20 12:45:00,90.8,63.9,29.70,SSE,147,0.0,6.0,41,0.00,,---,0.00,VWS V14.01,2013-07-20 19:45:00,
2013-07-20 12:47:00,90.9,64.0,29.70,SSE,147,2.0,6.0,41,0.00,,---,0.00,VWS V14.01,2013-07-20 19:47:00,
2013-07-20 12:52:00,91.3,62.9,29.70,SE,144,1.0,6.0,39,0.00,,---,0.00,VWS V14.01,2013-07-20 19:52:00,
2013-07-20 12:57:00,91.8,64.8,29.70,SE,146,6.0,7.0,41,0.00,,---,0.00,VWS V14.01,2013-07-20 19:57:00,
2013-07-20 13:00:00,92.2,64.4,29.70,SE,146,4.0,7.0,40,0.00,,---,0.00,VWS V14.01,2013-07-20 20:00:00,
2013-07-20 13:02:00,92.3,63.8,29.70,SE,146,2.0,4.0,39,0.00,,---,0.00,VWS V14.01,2013-07-20 20:02:00,
2013-07-20 13:07:00,92.9,62.8,29.70,SE,146,1.0,6.0,37,0.00,,---,0.00,VWS V14.01,2013-07-20 20:07:00,
2013-07-20 13:12:00,93.4,64.0,29.69,SE,145,4.0,7.0,38,0.00,,---,0.00,VWS V14.01,2013-07-20 20:12:00,
2013-07-20 13:15:00,93.7,61.1,29.69,SE,144,2.0,7.0,34,0.00,,---,0.00,VWS V14.01,2013-07-20 20:15:00,
2013-07-20 13:17:00,93.8,62.0,29.69,SE,144,0.0,4.0,35,0.00,,---,0.00,VWS V14.01,2013-07-20 20:17:00,
2013-07-20 13:22:00,94.3,64.1,29.68,SE,144,1.0,4.0,37,0.00,,---,0.00,VWS V14.01,2013-07-20 20:22:00,
2013-07-20 13:27:00,94.7,64.4,29.68,SSE,154,1.0,6.0,37,0.00,,---,0.00,VWS V14.01,2013-07-20 20:27:00,
2013-07-20 13:30:00,95.0,64.7,29.68,SSE,153,1.0,6.0,37,0.00,,---,0.00,VWS V14.01,2013-07-20 20:30:00,
2013-07-20 13:32:00,95.1,64.0,29.68,SSE,153,2.0,5.0,36,0.00,,---,0.00,VWS V14.01,2013-07-20 20:32:00,
2013-07-20 13:37:00,95.5,65.1,29.68,SE,140,5.0,7.0,37,0.00,,---,0.00,VWS V14.01,2013-07-20 20:37:00,
2013-07-20 13:42:00,95.9,65.5,29.68,SE,140,0.0,7.0,37,0.00,,---,0.00,VWS V14.01,2013-07-20 20:42:00,
2013-07-20 13:45:00,96.3,61.7,29.67,SE,141,0.0,7.0,32,0.00,,---,0.00,VWS V14.01,2013-07-20 20:45:00,
2013-07-20 13:47:00,96.4,59.9,29.67,South,176,6.0,6.0,30,0.00,,---,0.00,VWS V14.01,2013-07-20 20:47:00,
2013-07-20 13:52:00,96.7,62.0,29.67,South,179,0.0,7.0,32,0.00,,---,0.00,VWS V14.01,2013-07-20 20:52:00,
2013-07-20 13:57:00,97.0,59.5,29.67,South,191,1.0,7.0,29,0.00,,---,0.00,VWS V14.01,2013-07-20 20:57:00,
2013-07-20 14:00:00,97.3,58.8,29.67,South,191,1.0,7.0,28,0.00,,---,0.00,VWS V14.01,2013-07-20 21:00:00,
2013-07-20 14:02:00,97.4,61.7,29.67,South,189,3.0,4.0,31,0.00,,---,0.00,VWS V14.01,2013-07-20 21:02:00,
2013-07-20 14:07:00,97.7,61.0,29.67,South,179,4.0,6.0,30,0.00,,---,0.00,VWS V14.01,2013-07-20 21:07:00,
2013-07-20 14:12:00,97.9,63.9,29.67,SSE,158,2.0,8.0,33,0.00,,---,0.00,VWS V14.01,2013-07-20 21:12:00,
2013-07-20 14:15:00,98.1,64.1,29.66,SSE,158,1.0,8.0,33,0.00,,---,0.00,VWS V14.01,2013-07-20 21:15:00,
2013-07-20 14:17:00,98.2,62.4,29.66,SSE,158,0.0,2.0,31,0.00,,---,0.00,VWS V14.01,2013-07-20 21:17:00,
2013-07-20 14:22:00,98.3,64.3,29.67,SSE,160,2.0,7.0,33,0.00,,---,0.00,VWS V14.01,2013-07-20 21:22:00,
2013-07-20 14:27:00,98.5,61.7,29.66,SSE,159,0.0,7.0,30,0.00,,---,0.00,VWS V14.01,2013-07-20 21:27:00,
2013-07-20 14:30:00,98.5,60.8,29.66,SSE,168,2.0,8.0,29,0.00,,---,0.00,VWS V14.01,2013-07-20 21:30:00,
2013-07-20 14:32:00,98.6,58.9,29.66,South,180,3.0,9.0,27,0.00,,---,0.00,VWS V14.01,2013-07-20 21:32:00,
2013-07-20 14:37:00,98.7,61.0,29.66,South,190,5.0,9.0,29,0.00,,---,0.00,VWS V14.01,2013-07-20 21:37:00,
2013-07-20 14:43:00,99.0,60.2,29.66,SSW,192,1.0,9.0,28,0.00,,---,0.00,VWS V14.01,2013-07-20 21:43:00,
2013-07-20 14:45:00,99.0,62.2,29.66,SSW,193,3.0,9.0,30,0.00,,---,0.00,VWS V14.01,2013-07-20 21:45:00,
2013-07-20 14:48:00,99.1,62.3,29.66,SSW,196,3.0,5.0,30,0.00,,---,0.00,VWS V14.01,2013-07-20 21:48:00,
2013-07-20 14:53:00,99.4,63.5,29.66,South,191,1.0,5.0,31,0.00,,---,0.00,VWS V14.01,2013-07-20 21:53:00,
2013-07-20 14:58:00,99.6,65.4,29.65,SSW,199,5.0,7.0,33,0.00,,---,0.00,VWS V14.01,2013-07-20 21:58:00,
2013-07-20 15:00:00,99.8,65.6,29.65,SSW,199,3.0,7.0,33,0.00,,---,0.00,VWS V14.01,2013-07-20 22:00:00,
2013-07-20 15:03:00,99.8,65.6,29.65,SSW,200,7.0,7.0,33,0.00,,---,0.00,VWS V14.01,2013-07-20 22:03:00,
2013-07-20 15:08:00,99.8,67.3,29.65,SSW,194,8.0,10.0,35,0.00,,---,0.00,VWS V14.01,2013-07-20 22:08:00,
2013-07-20 15:13:00,99.6,65.4,29.65,SSW,198,6.0,10.0,33,0.00,,---,0.00,VWS V14.01,2013-07-20 22:13:00,
2013-07-20 15:15:00,99.5,67.0,29.65,SSW,201,4.0,11.0,35,0.00,,---,0.00,VWS V14.01,2013-07-20 22:15:00,
2013-07-20 15:18:00,99.5,66.2,29.64,South,189,10.0,13.0,34,0.00,,---,0.00,VWS V14.01,2013-07-20 22:18:00,
2013-07-20 15:23:00,99.4,66.1,29.64,South,190,12.0,13.0,34,0.00,,---,0.00,VWS V14.01,2013-07-20 22:23:00,
2013-07-20 15:28:00,99.2,65.1,29.64,SSW,197,6.0,13.0,33,0.00,,---,0.00,VWS V14.01,2013-07-20 22:28:00,
2013-07-20 15:30:00,99.1,66.7,29.64,SSW,196,9.0,13.0,35,0.00,,---,0.00,VWS V14.01,2013-07-20 22:30:00,
2013-07-20 15:33:00,99.1,66.7,29.64,SSW,202,9.0,12.0,35,0.00,,---,0.00,VWS V14.01,2013-07-20 22:33:00,
2013-07-20 15:38:00,99.2,65.9,29.64,SSW,194,8.0,12.0,34,0.00,,---,0.00,VWS V14.01,2013-07-20 22:38:00,
2013-07-20 15:44:00,99.3,66.0,29.64,SSW,199,8.0,12.0,34,0.00,,---,0.00,VWS V14.01,2013-07-20 22:44:00,
2013-07-20 15:45:00,99.2,65.1,29.64,SSW,195,11.0,12.0,33,0.00,,---,0.00,VWS V14.01,2013-07-20 22:45:00,
2013-07-20 15:49:00,99.1,65.0,29.63,SSW,198,8.0,11.0,33,0.00,,---,0.00,VWS V14.01,2013-07-20 22:49:00,
2013-07-20 15:54:00,98.9,65.7,29.63,SSW,199,7.0,11.0,34,0.00,,---,0.00,VWS V14.01,2013-07-20 22:54:00,
2013-07-20 15:59:00,98.9,64.8,29.62,SSW,198,10.0,11.0,33,0.00,,---,0.00,VWS V14.01,2013-07-20 22:59:00,
2013-07-20 16:00:00,98.8,64.7,29.62,SSW,198,11.0,13.0,33,0.00,,---,0.00,VWS V14.01,2013-07-20 23:00:00,
2013-07-20 16:04:00,98.5,65.3,29.62,SSW,202,9.0,13.0,34,0.00,,---,0.00,VWS V14.01,2013-07-20 23:04:00,
2013-07-20 16:09:00,98.4,64.4,29.62,South,190,8.0,13.0,33,0.00,,---,0.00,VWS V14.01,2013-07-20 23:09:00,
2013-07-20 16:14:00,98.4,64.4,29.62,South,186,9.0,13.0,33,0.00,,---,0.00,VWS V14.01,2013-07-20 23:14:00,
2013-07-20 16:15:00,98.5,64.4,29.62,South,191,8.0,13.0,33,0.00,,---,0.00,VWS V14.01,2013-07-20 23:15:00,
2013-07-20 16:19:00,98.5,64.4,29.61,SSW,192,5.0,12.0,33,0.00,,---,0.00,VWS V14.01,2013-07-20 23:19:00,
2013-07-20 16:24:00,98.5,62.7,29.61,South,185,9.0,12.0,31,0.00,,---,0.00,VWS V14.01,2013-07-20 23:24:00,
2013-07-20 16:30:00,98.4,62.6,29.61,SSW,195,11.0,12.0,31,0.00,,---,0.00,VWS V14.01,2013-07-20 23:30:00,
2013-07-20 16:35:00,98.3,62.5,29.61,South,190,9.0,12.0,31,0.00,,---,0.00,VWS V14.01,2013-07-20 23:35:00,
2013-07-20 16:40:00,98.1,63.2,29.61,SSW,195,11.0,12.0,32,0.00,,---,0.00,VWS V14.01,2013-07-20 23:40:00,
2013-07-20 16:45:00,98.3,62.5,29.60,SSW,193,8.0,12.0,31,0.00,,---,0.00,VWS V14.01,2013-07-20 23:45:00,
2013-07-20 16:50:00,98.4,64.4,29.61,South,186,6.0,10.0,33,0.00,,---,0.00,VWS V14.01,2013-07-20 23:50:00,
2013-07-20 16:55:00,98.7,63.8,29.61,South,171,8.0,11.0,32,0.00,,---,0.00,VWS V14.01,2013-07-20 23:55:00,
2013-07-20 17:00:00,98.9,62.1,29.60,South,170,8.0,11.0,30,0.00,,---,0.00,VWS V14.01,2013-07-21 00:00:00,
2013-07-20 17:05:00,98.9,61.1,29.60,SSE,155,6.0,10.0,29,0.00,,---,0.00,VWS V14.01,2013-07-21 00:05:00,
2013-07-20 17:10:00,98.8,61.0,29.60,SSE,161,7.0,12.0,29,0.00,,---,0.00,VWS V14.01,2013-07-21 00:10:00,
2013-07-20 17:15:00,98.8,62.0,29.59,SSE,151,13.0,13.0,30,0.00,,---,0.00,VWS V14.01,2013-07-21 00:15:00,
2013-07-20 17:20:00,98.8,62.9,29.59,SSE,164,10.0,14.0,31,0.00,,---,0.00,VWS V14.01,2013-07-21 00:20:00,
2013-07-20 17:25:00,98.7,60.0,29.59,SSE,158,11.0,14.0,28,0.00,,---,0.00,VWS V14.01,2013-07-21 00:25:00,
2013-07-20 17:30:00,98.6,59.9,29.59,SSE,152,11.0,14.0,28,0.00,,---,0.00,VWS V14.01,2013-07-21 00:30:00,
2013-07-20 17:35:00,98.6,60.9,29.59,SSE,154,7.0,11.0,29,0.00,,---,0.00,VWS V14.01,2013-07-21 00:35:00,
2013-07-20 17:40:00,98.5,60.8,29.59,SSE,153,8.0,13.0,29,0.00,,---,0.00,VWS V14.01,2013-07-21 00:40:00,
2013-07-20 17:45:00,98.4,61.7,29.59,SE,144,10.0,13.0,30,0.00,,---,0.00,VWS V14.01,2013-07-21 00:45:00,
2013-07-20 17:50:00,98.3,62.5,29.59,SSE,154,7.0,11.0,31,0.00,,---,0.00,VWS V14.01,2013-07-21 00:50:00,
2013-07-20 17:55:00,98.3,62.5,29.59,SSE,154,8.0,11.0,31,0.00,,---,0.00,VWS V14.01,2013-07-21 00:55:00,
2013-07-20 18:00:00,98.3,65.1,29.58,SE,144,6.0,11.0,34,0.00,,---,0.00,VWS V14.01,2013-07-21 01:00:00,
2013-07-20 18:01:00,98.3,64.3,29.58,SE,144,6.0,11.0,33,0.00,,---,0.00,VWS V14.01,2013-07-21 01:01:00,
2013-07-20 18:06:00,98.1,65.0,29.58,SE,142,4.0,10.0,34,0.00,,---,0.00,VWS V14.01,2013-07-21 01:06:00,
2013-07-20 18:11:00,97.9,64.8,29.58,SE,142,6.0,10.0,34,0.00,,---,0.00,VWS V14.01,2013-07-21 01:11:00,
2013-07-20 18:15:00,97.6,65.4,29.58,SE,143,7.0,10.0,35,0.00,,---,0.00,VWS V14.01,2013-07-21 01:15:00,
2013-07-20 18:16:00,97.6,65.4,29.58,SE,144,5.0,8.0,35,0.00,,---,0.00,VWS V14.01,2013-07-21 01:16:00,
2013-07-20 18:21:00,97.1,64.9,29.58,SSE,149,5.0,8.0,35,0.00,,---,0.00,VWS V14.01,2013-07-21 01:21:00,
2013-07-20 18:26:00,96.8,66.2,29.58,SSE,148,5.0,8.0,37,0.00,,---,0.00,VWS V14.01,2013-07-21 01:26:00,
2013-07-20 18:30:00,96.4,66.7,29.58,SSE,147,6.0,9.0,38,0.00,,---,0.00,VWS V14.01,2013-07-21 01:30:00,
2013-07-20 18:32:00,96.4,66.7,29.58,SE,146,7.0,8.0,38,0.00,,---,0.00,VWS V14.01,2013-07-21 01:32:00,
2013-07-20 18:37:00,96.0,66.3,29.58,SE,144,5.0,9.0,38,0.00,,---,0.00,VWS V14.01,2013-07-21 01:37:00,
2013-07-20 18:42:00,95.6,67.4,29.58,SSE,152,6.0,9.0,40,0.00,,---,0.00,VWS V14.01,2013-07-21 01:42:00,
2013-07-20 18:45:00,95.3,66.4,29.58,SSE,156,4.0,9.0,39,0.00,,---,0.00,VWS V14.01,2013-07-21 01:45:00,
2013-07-20 18:47:00,95.2,65.6,29.58,SSE,155,7.0,7.0,38,0.00,,---,0.00,VWS V14.01,2013-07-21 01:47:00,
2013-07-20 18:52:00,94.8,65.3,29.58,SSE,153,8.0,9.0,38,0.00,,---,0.00,VWS V14.01,2013-07-21 01:52:00,
2013-07-20 18:57:00,94.4,65.7,29.58,SSE,151,5.0,9.0,39,0.00,,---,0.00,VWS V14.01,2013-07-21 01:57:00,
2013-07-20 19:00:00,94.2,67.6,29.58,SSE,150,7.0,9.0,42,0.00,,---,0.00,VWS V14.01,2013-07-21 02:00:00,
2013-07-20 19:02:00,94.1,67.5,29.58,SSE,150,2.0,7.0,42,0.00,,---,0.00,VWS V14.01,2013-07-21 02:02:00,
2013-07-20 19:08:00,93.7,66.5,29.58,SSE,149,4.0,8.0,41,0.00,,---,0.00,VWS V14.01,2013-07-21 02:08:00,
2013-07-20 19:13:00,93.2,66.0,29.58,SSE,148,7.0,8.0,41,0.00,,---,0.00,VWS V14.01,2013-07-21 02:13:00,
2013-07-20 19:15:00,92.9,66.4,29.58,SSE,148,6.0,8.0,42,0.00,,---,0.00,VWS V14.01,2013-07-21 02:15:00,
2013-07-20 19:18:00,92.7,66.9,29.58,SSE,148,5.0,6.0,43,0.00,,---,0.00,VWS V14.01,2013-07-21 02:18:00,
2013-07-20 19:23:00,92.2,66.5,29.58,SSE,148,6.0,6.0,43,0.00,,---,0.00,VWS V14.01,2013-07-21 02:23:00,
2013-07-20 19:28:00,91.5,65.9,29.58,SE,145,5.0,9.0,43,0.00,,---,0.00,VWS V14.01,2013-07-21 02:28:00,
2013-07-20 19:30:00,91.3,65.7,29.58,SE,145,6.0,9.0,43,0.00,,---,0.00,VWS V14.01,2013-07-21 02:30:00,
2013-07-20 19:33:00,91.0,65.4,29.58,SE,145,6.0,7.0,43,0.00,,---,0.00,VWS V14.01,2013-07-21 02:33:00,
2013-07-20 19:39:00,90.5,65.6,29.58,SE,145,5.0,7.0,44,0.00,,---,0.00,VWS V14.01,2013-07-21 02:39:00,
2013-07-20 19:44:00,90.0,65.8,29.58,SE,126,4.0,7.0,45,0.00,,---,0.00,VWS V14.01,2013-07-21 02:44:00,
2013-07-20 19:45:00,89.8,65.6,29.58,SE,131,4.0,7.0,45,0.00,,---,0.00,VWS V14.01,2013-07-21 02:45:00,
2013-07-20 19:49:00,89.5,66.0,29.58,SE,134,5.0,5.0,46,0.00,,---,0.00,VWS V14.01,2013-07-21 02:49:00,
2013-07-20 19:54:00,88.9,65.5,29.58,SE,135,4.0,6.0,46,0.00,,---,0.00,VWS V14.01,2013-07-21 02:54:00,
2013-07-20 19:59:00,88.3,65.5,29.58,SE,134,5.0,6.0,47,0.00,,---,0.00,VWS V14.01,2013-07-21 02:59:00,
2013-07-20 20:00:00,88.1,64.7,29.58,SE,134,5.0,6.0,46,0.00,,---,0.00,VWS V14.01,2013-07-21 03:00:00,
2013-07-20 20:04:00,87.7,65.0,29.58,SE,134,1.0,5.0,47,0.00,,---,0.00,VWS V14.01,2013-07-21 03:04:00,
2013-07-20 20:09:00,87.0,65.0,29.58,SE,135,4.0,6.0,48,0.00,,---,0.00,VWS V14.01,2013-07-21 03:09:00,
2013-07-20 20:14:00,86.4,64.4,29.58,SE,136,6.0,6.0,48,0.00,,---,0.00,VWS V14.01,2013-07-21 03:14:00,
2013-07-20 20:15:00,86.1,64.1,29.58,SE,136,6.0,6.0,48,0.00,,---,0.00,VWS V14.01,2013-07-21 03:15:00,
2013-07-20 20:19:00,85.6,64.3,29.58,SE,136,6.0,6.0,49,0.00,,---,0.00,VWS V14.01,2013-07-21 03:19:00,
2013-07-20 20:24:00,85.0,63.7,29.58,SE,136,7.0,7.0,49,0.00,,---,0.00,VWS V14.01,2013-07-21 03:24:00,
2013-07-20 20:29:00,84.2,63.6,29.59,SE,140,5.0,8.0,50,0.00,,---,0.00,VWS V14.01,2013-07-21 03:29:00,
2013-07-20 20:30:00,84.0,63.4,29.58,SE,135,4.0,8.0,50,0.00,,---,0.00,VWS V14.01,2013-07-21 03:30:00,
2013-07-20 20:34:00,83.6,64.1,29.59,ESE,119,4.0,5.0,52,0.00,,---,0.00,VWS V14.01,2013-07-21 03:34:00,
2013-07-20 20:39:00,83.1,63.7,29.59,SE,134,4.0,6.0,52,0.00,,---,0.00,VWS V14.01,2013-07-21 03:39:00,
2013-07-20 20:44:00,82.5,63.7,29.59,SE,130,4.0,7.0,53,0.00,,---,0.00,VWS V14.01,2013-07-21 03:44:00,
2013-07-20 20:45:00,82.4,64.1,29.59,SE,130,6.0,7.0,54,0.00,,---,0.00,VWS V14.01,2013-07-21 03:45:00,
2013-07-20 20:49:00,82.0,64.3,29.59,SE,130,5.0,7.0,55,0.00,,---,0.00,VWS V14.01,2013-07-21 03:49:00,
2013-07-20 20:55:00,81.3,63.1,29.59,SE,130,6.0,7.0,54,0.00,,---,0.00,VWS V14.01,2013-07-21 03:55:00,
2013-07-20 21:00:00,80.7,62.5,29.59,SE,131,6.0,7.0,54,0.00,,---,0.00,VWS V14.01,2013-07-21 04:00:00,
2013-07-20 21:01:00,80.5,62.3,29.59,SE,131,4.0,7.0,54,0.00,,---,0.00,VWS V14.01,2013-07-21 04:01:00,
2013-07-20 21:06:00,79.9,62.3,29.59,SE,134,5.0,7.0,55,0.00,,---,0.00,VWS V14.01,2013-07-21 04:06:00,
2013-07-20 21:11:00,79.3,61.8,29.60,SE,134,5.0,7.0,55,0.00,,---,0.00,VWS V14.01,2013-07-21 04:11:00,
2013-07-20 21:15:00,78.7,61.2,29.60,SE,134,4.0,7.0,55,0.00,,---,0.00,VWS V14.01,2013-07-21 04:15:00,
2013-07-20 21:16:00,78.7,61.2,29.60,SE,134,5.0,7.0,55,0.00,,---,0.00,VWS V14.01,2013-07-21 04:16:00,
2013-07-20 21:21:00,78.2,61.2,29.60,SE,134,5.0,6.0,56,0.00,,---,0.00,VWS V14.01,2013-07-21 04:21:00,
2013-07-20 21:26:00,77.6,60.7,29.60,SE,137,4.0,7.0,56,0.00,,---,0.00,VWS V14.01,2013-07-21 04:26:00,
2013-07-20 21:30:00,77.1,61.2,29.60,SE,136,5.0,7.0,58,0.00,,---,0.00,VWS V14.01,2013-07-21 04:30:00,
2013-07-20 21:31:00,77.1,60.7,29.60,SE,136,4.0,7.0,57,0.00,,---,0.00,VWS V14.01,2013-07-21 04:31:00,
2013-07-20 21:36:00,76.6,60.7,29.61,SE,136,5.0,6.0,58,0.00,,---,0.00,VWS V14.01,2013-07-21 04:36:00,
2013-07-20 21:41:00,76.1,60.3,29.61,SE,140,7.0,8.0,58,0.00,,---,0.00,VWS V14.01,2013-07-21 04:41:00,
2013-07-20 21:45:00,75.5,59.7,29.61,SSE,147,4.0,8.0,58,0.00,,---,0.00,VWS V14.01,2013-07-21 04:45:00,
2013-07-20 21:46:00,75.6,59.8,29.61,SSE,147,6.0,8.0,58,0.00,,---,0.00,VWS V14.01,2013-07-21 04:46:00,
2013-07-20 21:51:00,75.1,59.8,29.61,SSE,148,2.0,7.0,59,0.00,,---,0.00,VWS V14.01,2013-07-21 04:51:00,
2013-07-20 21:56:00,74.8,59.5,29.61,SSE,148,6.0,7.0,59,0.00,,---,0.00,VWS V14.01,2013-07-21 04:56:00,
2013-07-20 22:00:00,74.3,59.1,29.61,SSE,148,6.0,7.0,59,0.00,,---,0.00,VWS V14.01,2013-07-21 05:00:00,
2013-07-20 22:01:00,74.4,59.2,29.61,SSE,148,4.0,7.0,59,0.00,,---,0.00,VWS V14.01,2013-07-21 05:01:00,
2013-07-20 22:06:00,74.0,58.8,29.61,SSE,148,5.0,6.0,59,0.00,,---,0.00,VWS V14.01,2013-07-21 05:06:00,
2013-07-20 22:10:00,73.6,58.9,29.61,SSE,148,4.0,6.0,60,0.00,,---,0.00,VWS V14.01,2013-07-21 05:10:00,
2013-07-20 22:15:00,73.3,58.6,29.61,SSE,147,6.0,6.0,60,0.00,,---,0.00,VWS V14.01,2013-07-21 05:15:00,
2013-07-20 22:20:00,73.0,58.8,29.61,SE,144,4.0,6.0,61,0.00,,---,0.00,VWS V14.01,2013-07-21 05:20:00,
2013-07-20 22:25:00,72.8,59.0,29.61,SE,144,5.0,6.0,62,0.00,,---,0.00,VWS V14.01,2013-07-21 05:25:00,
2013-07-20 22:30:00,72.4,58.7,29.61,SE,141,5.0,6.0,62,0.00,,---,0.00,VWS V14.01,2013-07-21 05:30:00,
2013-07-20 22:35:00,72.1,58.8,29.61,SE,141,4.0,6.0,63,0.00,,---,0.00,VWS V14.01,2013-07-21 05:35:00,
2013-07-20 22:45:00,71.5,58.3,29.61,SE,135,5.0,7.0,63,0.00,,---,0.00,VWS V14.01,2013-07-21 05:45:00,
2013-07-20 23:00:00,70.9,59.0,29.61,SE,135,4.0,7.0,66,0.00,,---,0.00,VWS V14.01,2013-07-21 06:00:00,
2013-07-20 23:15:00,70.3,58.8,29.62,SE,135,3.0,7.0,67,0.00,,---,0.00,VWS V14.01,2013-07-21 06:15:00,
2013-07-20 23:30:00,69.5,57.7,29.62,East,90,4.0,8.0,66,0.00,,---,0.00,VWS V14.01,2013-07-21 06:30:00,
2013-07-20 23:45:00,69.1,58.5,29.62,East,90,2.0,7.0,69,0.00,,---,0.00,VWS V14.01,2013-07-21 06:45:00,